Barter Island, AK

4:11 PM AKDT on October 19, 2017 (GMT -0800)
Barter Island LRRS

Weather History for PABA - February, 2014

Change the Weather History Date:

Tuesday, February 25, 2014

  Actual Average Record
Temperature  
Mean Temperature 0 °F -  
Max Temperature 15 °F -5 °F 33 °F (2011)
Min Temperature -14 °F -17 °F -31 °F (2012)
Degree Days  
Heating Degree Days 64    
Moisture  
Dew Point -9 °F    
Average Humidity 82    
Maximum Humidity 88    
Minimum Humidity 74    
Precipitation  
Precipitation 0.00 in - - ()
Sea Level Pressure  
Sea Level Pressure 30.05 in    
Wind  
Wind Speed 9 mph (SW)    
Max Wind Speed 28 mph    
Max Gust Speed -    
Visibility 10 miles    
Events      
Averages and records for this station are not official NWS values.
T = Trace of Precipitation, MM = Missing Value Source: NWS Daily Summary

Daily Weather History Graph

Daily Weather History Graph

Search for Another Location

Airport or City:

Trip Planner

Search our weather history database for the weather conditions in past years. The results will help you decide how hot, cold, wet, or windy it might be!

Date:

Astronomy

Feb. 25, 2014 Rise Set
Actual Time 8:19 AM AKST 5:16 PM AKST
Civil Twilight 7:15 AM AKST 6:20 PM AKST
Nautical Twilight 6:05 AM AKST 7:31 PM AKST
Astronomical Twilight 4:51 AM AKST 8:45 PM AKST
Moon 7:27 AM AKST (2/25) 11:32 AM AKST (2/25)
Length of Visible Light 11h 04m
Length of Day
8h 57m
Waning Crescent, 17% of the Moon is Illuminated
Feb 25
Waning Crescent
Feb 28
New
Mar 8
First Quarter
Mar 16
Full
Mar 23
Last Quarter

Hourly Weather History & Observations

Time (AKST) Temp. Windchill Dew Point Humidity Pressure Visibility Wind Dir Wind Speed Gust Speed Precip Events Conditions
12:01 AM -9.9 °F -26.3 °F -14.1 °F 82% 30.04 in 10.0 mi East 8.1 mph - N/A   Clear
1:01 AM -7.1 °F -29.1 °F -9.9 °F 87% 30.02 in 10.0 mi East 16.1 mph - N/A   Clear
2:01 AM -5.1 °F -23.5 °F -9.0 °F 83% 30.02 in 10.0 mi East 11.5 mph - N/A   Clear
3:01 AM -5.1 °F -21.5 °F -9.0 °F 83% 30.00 in 10.0 mi ENE 9.2 mph - N/A   Clear
4:01 AM -5.1 °F -22.5 °F -9.0 °F 83% 29.99 in 10.0 mi ENE 10.4 mph - N/A   Clear
5:01 AM -5.1 °F -20.4 °F -9.0 °F 83% 29.99 in 10.0 mi East 8.1 mph - N/A   Clear
6:01 AM -5.1 °F - -9.0 °F 83% 29.99 in 10.0 mi North - - N/A   Clear
7:01 AM -7.1 °F -18.1 °F -11.0 °F 83% 29.99 in 10.0 mi SSE 4.6 mph - N/A   Clear
8:01 AM -9.9 °F -23.4 °F -15.0 °F 78% 29.99 in 10.0 mi WSW 5.8 mph - N/A   Clear
9:01 AM -14.1 °F -26.3 °F -18.9 °F 79% 30.00 in 10.0 mi SW 4.6 mph - N/A   Clear
10:01 AM -13.0 °F -27.0 °F -17.0 °F 82% 30.01 in 10.0 mi WSW 5.8 mph - N/A   Clear
11:01 AM -11.9 °F -25.7 °F -18.0 °F 74% 30.03 in 10.0 mi SW 5.8 mph - N/A   Clear
12:01 PM -9.9 °F -23.4 °F -15.0 °F 78% 30.03 in 10.0 mi West 5.8 mph - N/A   Clear
1:01 PM -7.1 °F -21.4 °F -11.9 °F 79% 30.05 in 10.0 mi West 6.9 mph - N/A   Clear
2:01 PM -6.0 °F -14.7 °F -11.0 °F 79% 30.06 in 10.0 mi SSW 3.5 mph - N/A   Clear
3:01 PM -6.0 °F -16.9 °F -11.0 °F 79% 30.08 in 10.0 mi WSW 4.6 mph - N/A   Clear
4:01 PM -5.1 °F -13.6 °F -9.0 °F 83% 30.09 in 10.0 mi WSW 3.5 mph - N/A   Clear
5:01 PM -8.0 °F -21.0 °F -13.0 °F 79% 30.09 in 10.0 mi South 5.8 mph - N/A   Clear
6:01 PM -7.1 °F - -11.0 °F 83% 30.09 in 10.0 mi Calm Calm - N/A   Clear
7:01 PM -7.1 °F -19.9 °F -11.9 °F 79% 30.09 in 10.0 mi SSE 5.8 mph - N/A   Clear
8:01 PM -2.0 °F -19.6 °F -5.1 °F 87% 30.12 in 10.0 mi West 11.5 mph - N/A   Clear
9:01 PM 15.1 °F -0.6 °F 12.0 °F 88% 30.14 in 10.0 mi West 16.1 mph - N/A   Clear
10:01 PM 12.9 °F -7.6 °F 10.0 °F 88% 30.15 in 10.0 mi WNW 27.6 mph - N/A   Clear
11:01 PM 12.9 °F -7.3 °F 10.0 °F 88% 30.17 in 6.0 mi West 26.5 mph - N/A   Clear